Regional Weather Roundup
Issued by NWS

Home | Current Version | Previous Version | Graphics & Text | Print | Product List | Glossary On
Versions: 1 2 3 4 5 6 7 8 9 10 11 12 13 14 15 16 17 18 19 20 21 22 23 24 25 26 27 28 29 30 31 32 33 34 35 36 37 38 39 40 41 42 43 44 45 46 47 48 49 50
000
ASUS43 KMKX 041311
RWRWI

WISCONSIN REGIONAL WEATHER ROUNDUP
NATIONAL WEATHER SERVICE MILWAUKEE/SULLIVAN WI
800 AM CDT FRI SEP 04 2015

NOTE: "FAIR" INDICATES FEW OR NO CLOUDS BELOW 12,000 FEET WITH NO
SIGNIFICANT WEATHER AND/OR OBSTRUCTIONS TO VISIBILITY.

WIZ001-002-006>008-014>016-023>028-041400-
NORTHWEST WISCONSIN

CITY           SKY/WX    TMP DP  RH WIND       PRES   REMARKS
SUPERIOR ARPT  CLOUDY    58  58  99 NE8       30.01S
ASHLAND        PTSUNNY   57  57 100 CALM      30.03S FOG
HAYWARD        PTSUNNY   68  62  81 SE8       30.02S
SIREN          PTSUNNY   70  65  83 SE10G16   29.98R
CUMBERLAND     CLOUDY    66  63  88 SE6       30.01R
RICE LAKE      CLOUDY    69  63  81 SE10      30.02S
CHETEK         CLOUDY    69  64  86 MISG      30.01S
LADYSMITH      MOSUNNY   65  62  91 E7        30.05S
EAU CLAIRE     PTSUNNY   70  64  81 SE7       30.00R
MENOMONIE      SUNNY     70  67  89 E5        30.00R
NEW RICHMOND   SUNNY     70  64  82 SE8G16    29.97S
OSCEOLA        SUNNY     71  66  84 SE9       29.99R
$$

WIZ003>005-009-010-017-018-041400-
NORTH CENTRAL WISCONSIN

CITY           SKY/WX    TMP DP  RH WIND       PRES   REMARKS
MANITOWISH WTR SUNNY     62  62 100 SE3       30.08R
ARBOR VITAE    SUNNY     63  62  96 SE7       30.08S
WOODRUFF       SUNNY     63  62  96 SE7       30.08S
RHINELANDER    SUNNY     61  60  97 E3        30.09S
EAGLE RIVER    SUNNY     62  62 100 E6        30.08S
LAND O LAKES   SUNNY     61  61 100 CALM      30.10R
PHILLIPS       SUNNY     62  61  96 E3        30.05R
TOMAHAWK         N/A     56  56  97 CALM      30.08R FOG
MEDFORD        PTSUNNY   63  62  97 SE6       30.06R
MERRILL        SUNNY     59  59 100 CALM      30.07S FOG
$$

WIZ029-030-035-036-043>047-041400-
CENTRAL WISCONSIN

CITY           SKY/WX    TMP DP  RH WIND       PRES   REMARKS
WAUSAU         SUNNY     64  62  93 E6        30.04S
MOSINEE        CLOUDY    63  63 100 E5        30.06S FOG
MARSHFIELD     CLOUDY    64  61  90 E6        30.05R FOG
STEVENS POINT  FOG       62  62 100 E6        30.06R VSB 1/2
WAUPACA        CLOUDY    66  65  97 CALM      30.04S FOG
WAUTOMA        CLOUDY    65  65 100 NE3       30.04F FOG
WISC RAPIDS    CLOUDY    64  62  93 E7        30.06R FOG
CAMP DOUGLAS   CLOUDY    68  68 100 E8        30.02R
$$

WIZ011>013-019>022-031-037>040-048>050-041400-
NORTHEAST WISCONSIN

CITY           SKY/WX    TMP DP  RH WIND       PRES   REMARKS
ANTIGO         SUNNY     62  62  98 CALM      30.08R
SHAWANO        NOT AVBL
OCONTO         SUNNY     64  64 100 CALM      30.04R
STURGEON BAY   SUNNY     66  63  88 NE5       30.05R
GREEN BAY      CLOUDY    67  64  90 NE8       30.04R FOG
MANITOWOC      CLOUDY    67  66  97 MISG      30.02S FOG
APPLETON       CLOUDY    64  64 100 N6        30.02R
CLINTONVILLE   CLOUDY    63  63 100 N3        30.04S
OSHKOSH        CLOUDY    69  64  84 CALM      30.02S
$$

WIZ032>034-041-042-053>061-041400-
SOUTHWEST WISCONSIN

CITY           SKY/WX    TMP DP  RH WIND       PRES   REMARKS
LA CROSSE      MOSUNNY   71  66  84 SE6       29.99R
SPARTA         CLOUDY    70  63  79 CALM      30.02R
VIROQUA          N/A     68  68 100 E8        30.02R
BOSCOBEL       SUNNY     70  67  90 NE5       30.00R
PRAIRIE DU CHI SUNNY     70  66  87 SE3       29.99R
PLATTEVILLE    SUNNY     70  68  95 E9        30.00S
$$

WIZ056-057-062-063-064-067-068-041400-
SOUTH CENTRAL WISCONSIN

CITY           SKY/WX    TMP DP  RH WIND       PRES   REMARKS
REEDSBURG      SUNNY     69  65  90 CALM      30.02R
BARABOO/DELLS  CLOUDY    68  64  88 E7        30.02S
LONE ROCK      SUNNY     70  67  90 E3        30.02R
MINERAL POINT  SUNNY     72  68  88 SE6       30.02S
MADISON        PTSUNNY   69  65  86 E3        30.01R
MIDDLETON      SUNNY     71  68  90 E5        30.02S
WATERTOWN      CLOUDY    64  64 100 E7        30.02R FOG
MONROE         MOSUNNY   68  66  94 SE3       30.02R FOG
JANESVILLE     MOSUNNY   70  68  94 CALM      30.01R FOG
$$

WIZ051-052-058>065-066-070>072-041400-
SOUTHEAST WISCONSIN

CITY           SKY/WX    TMP DP  RH WIND       PRES   REMARKS
MILWAUKEE      CLOUDY    67  65  93 NW3       30.02R
WAUKESHA       CLOUDY    63  63 100 CALM      30.04R FOG
MILWAUKEE/TIMM CLOUDY    64  63  94 N5        30.02S FOG
RACINE         CLOUDY    66  64  93 N7        30.03R FOG
BURLINGTON     MOSUNNY   65  65  97 CALM      30.02R FOG
KENOSHA        CLOUDY    67  64  90 NE6       30.02S FOG
FOND DU LAC    CLOUDY    69  64  84 NE5       30.02S
SHEBOYGAN      CLOUDY    68  66  93 N6        30.01S
WEST BEND      CLOUDY    64  63  94 CALM      30.02S
JUNEAU         CLOUDY    64  64  99 NE3       30.04S FOG
$$

LSZ147-162-041400-
LAKE SUPERIOR

STATION/POSITION TIME  TEMP    WIND        PRES    WAVE
                       AIR SEA DIR/SP/G            HT/PER
                 (UTC) (F)     (DEG/KT/KT) (MB)    (FT/S)
W MID LAKE BUOY  1250   60 56   90/ 10/ 10 1017.5R   0
DEVILS ISLAND    1300   61      80/  6/  7 1017.0R
PORT WING        1240   56      CALM  /  3 1016.6R
SAXON HARBOR     1200   54        CALM     1015.9
$$

LMZ867-665-643>646-041400-
LAKE MICHIGAN

STATION/POSITION TIME  TEMP    WIND        PRES    WAVE
                       AIR SEA DIR/SP/G            HT/PER
                 (UTC) (F)     (DEG/KT/KT) (MB)    (FT/S)
CHAMBERS ISLAND  1200   65      20/  8/  9 1016.6R
S GREEN BAY BUOY 1300   65 66  350/  4/  6 1018.2R
N MID LAKE BUOY  1250   68 66   80/ 12/ 14 1016.2R   2/ 4
NORTHPORT PIER   1200   68      50/ 11/ 16 1016.3S
SISTER BAY       1226   68     120/  6/ 11   N/A
ALGOMA LAKESHORE 1244          310/  5/  6   N/A
KEWAUNEE LAKESHO 1200   66      10/  5/ 10 1015.4R
SHEBOYGAN LAKESH 1300   65     360/ 13/ 14 1016.5R
PORT WASHINGTON  1200   68     320/  3/  5 1016.6R
ATWATER BUOY     1300   61     310/  4/  4 1017.7R
MILWAUKEE LAKESH 1210   65     350/  8/  9   N/A
S MID LAKE BUOY  1250   65 71  320/  8/ 10 1015.5R   1/ 4
KENOSHA   LAKESH 1300   63      10/  5/  6 1016.3R
$$

TC  - TEMPERATURE IN CELSIUS
VSB - VISIBILITY IN STATUTE MILES
WCI - WIND CHILL INDEX
HX  - HEAT INDEX



USA.gov is the U.S. government's official web portal to all federal, state and local government web resources and services.